This is the latest recevied weather packets stored in our database for station/object K5NAN. If no packets are shown the sender has not sent any weather packets the latest 1 day(s).
| Time | Temp. | Humidity | Pressure | Rain* | Wind** | Luminosity | Snow |
|---|---|---|---|---|---|---|---|
| 1777980044 | 20.56° C | 86% | 1002.9 hPa | 0 mm | 4.47 m/s, 193° | 0 W/m² | - |
| 1777979738 | 20.56° C | 86% | 1002.7 hPa | 0 mm | 3.13 m/s, 149° | 0 W/m² | - |
| 1777979434 | 20.56° C | 85% | 1002.5 hPa | 0 mm | 4.47 m/s, 178° | 0 W/m² | - |
| 1777979131 | 20.56° C | 85% | 1002.8 hPa | 0 mm | 4.92 m/s, 165° | 0 W/m² | - |
| 1777978828 | 20.56° C | 85% | 1002.8 hPa | 0 mm | 2.68 m/s, 199° | 0 W/m² | - |
| 1777978524 | 20.56° C | 85% | 1002.9 hPa | 0 mm | 4.92 m/s, 150° | 0 W/m² | - |
| 1777978220 | 21.11° C | 85% | 1003 hPa | 0 mm | 5.36 m/s, 216° | 0 W/m² | - |
| 1777977918 | 21.11° C | 85% | 1003 hPa | 0 mm | 5.81 m/s, 186° | 0 W/m² | - |
| 1777977615 | 21.11° C | 85% | 1003.1 hPa | 0 mm | 4.47 m/s, 163° | 0 W/m² | - |
| 1777977312 | 21.11° C | 85% | 1002.8 hPa | 0 mm | 5.36 m/s, 213° | 0 W/m² | - |
| 1777977009 | 21.11° C | 84% | 1002.9 hPa | 0 mm | 4.02 m/s, 165° | 0 W/m² | - |
| 1777976706 | 21.11° C | 84% | 1003 hPa | 0 mm | 4.92 m/s, 168° | 0 W/m² | - |
| 1777976403 | 21.11° C | 85% | 1003.2 hPa | 0 mm | 4.02 m/s, 170° | 0 W/m² | - |
| 1777976101 | 21.11° C | 85% | 1002.9 hPa | 0 mm | 4.92 m/s, 202° | 0 W/m² | - |
| 1777975798 | 21.11° C | 85% | 1003 hPa | 0 mm | 4.02 m/s, 156° | 0 W/m² | - |
| 1777975495 | 21.11° C | 84% | 1003.3 hPa | 0 mm | 6.26 m/s, 165° | 0 W/m² | - |
| 1777975191 | 21.11° C | 84% | 1003.3 hPa | 0 mm | 4.47 m/s, 164° | 0 W/m² | - |
| 1777974888 | 21.11° C | 84% | 1003.3 hPa | 0 mm | 6.26 m/s, 188° | 0 W/m² | - |
| 1777974584 | 21.11° C | 84% | 1003.4 hPa | 0 mm | 5.36 m/s, 192° | 0 W/m² | - |
| 1777974281 | 21.11° C | 84% | 1003.3 hPa | 0 mm | 6.26 m/s, 169° | 0 W/m² | - |
| 1777973977 | 21.11° C | 85% | 1003.6 hPa | 0 mm | 4.02 m/s, 178° | 0 W/m² | - |
| 1777973674 | 21.11° C | 85% | 1003.6 hPa | 0 mm | 2.24 m/s, 221° | 0 W/m² | - |
| 1777973371 | 21.11° C | 84% | 1003.7 hPa | 0 mm | 4.02 m/s, 221° | 0 W/m² | - |
| 1777973069 | 21.11° C | 85% | 1003.4 hPa | 0 mm | 4.47 m/s, 173° | 0 W/m² | - |
| 1777972766 | 21.11° C | 85% | 1003.5 hPa | 0 mm | 5.36 m/s, 186° | 0 W/m² | - |
* Rain latest hour (hover to see other rain measurements)
** Current wind speed in m/s (hover to see current wind gust speed)